Weather in Bogoslovskoye

Russia / Tula Oblast     54°46′06″N   37°59′48″E
temp.,
°C
wind,
m/s
gust,
m/s
humid.,
%
clouds,
%
prec.,
mm/h
press.,
hPa
HPBL,
m
18 april, sun
sun1800:00+10ene5982100 0.0 1017456
03:00+8e5975100 0.4 1018635
06:00+7ne0193100 3.2 1018104
09:00+6ne4493100 6.3 1019334
12:00+5ne4691100 0.6 1020479
15:00+8ne558167 0.6 1020610
18:00+8ne588375 0.0 1020678
21:00+6ene4888100 0.3 1021364
19 april, mon
mon1900:00+5ene4993100 0.0 1021345
03:00+6ne51091100 2.0 1021480
06:00+5ene61194100 0.3 1021636
09:00+5ene51093100 4.2 1022598
12:00+6ene61190100 0.1 1023900
15:00+3ene61397100 1.4 1023713
18:00+5ene61295100 1.0 1023988
21:00+3ene71397100 1.3 1023740
20 april, tue
tue2000:00+2ene61397100 0.9 1023624
03:00+2ene61297100 1.9 1022549
06:00+1ene61197100 0.1 1021432
09:00+2ene51197100 0.1 1021453
12:00+3e61197100 0.0 1020550
15:00+3e71297100 1.0 1018602
18:00+3e71497100 0.4 1016759
21:00+3e81797100 3.6 1011873
21 april, wed
wed2100:00+4e102097100 11.6 10061276
03:00+5ese101894100 14.4 1001996
06:00+7se91695100 0.8 999830
09:00+8se81394100 2.5 998656
12:00+3ssw81395100 0.7 1002736
15:00+4sw81386100 0.7 1005968
18:00+4sw81484100 0.1 10081118
21:00+5sw6128888 0.1 1011671
22 april, thu
thu2200:00+3ssw5139023 0.0 1013363
03:00+3ssw5129068 0.0 1014286
06:00+3ssw4119218 0.0 1016272
09:00+6ssw588297 0.0 1017393
12:00+10ssw787096 0.1 10181191
15:00+10ssw687799 0.4 1018847
18:00+10ssw487381 0.1 1018515
21:00+7sse4989100 0.1 1019200